CZ-4B R/B

Last updated on Tue Dec 16 2025 00:02:17 GMT+0000 (Coordinated Universal Time)

1 29507U 06046C 25349.07946979 .00003996 00000+0 20940-3 0 9997 2 29507 97.5737 29.2115 0033473 198.2659 161.7374 15.15897769 47225
UTC large
Height (km)
Speed (km/s)
/
Latitude / Longitude
Inclination (degrees)
Orbital Period (minutes)
Azimuth
Elevation
Range (km)
Doppler Factor

Next 0 passes for location: London (51.5072 / 0.1276)

Sorry there are no passes over London.